Weather History for Greenville, ME

Change the Weather History Date:

Saturday, September 1, 2012

  Actual Average (KMLT) Record (KMLT)
Temperature  
Mean Temperature 61 °F 63 °F  
Max Temperature 69 °F 74 °F 93 °F (2010)
Min Temperature 54 °F 52 °F 35 °F (1904)
Degree Days  
Heating Degree Days 4 4  
Month to date heating degree days 4  
Since 1 July heating degree days 83  
Cooling Degree Days 0 2  
Month to date cooling degree days 2  
Year to date cooling degree days 253  
Growing Degree Days 11 (Base 50)    
Moisture  
Dew Point 47 °F    
Average Humidity 62    
Maximum Humidity 80    
Minimum Humidity 43    
Precipitation  
Precipitation 0.00 in 0.10 in 1.14 in (1944)
Month to date precipitation 0.10  
Year to date precipitation 27.03  
Sea Level Pressure  
Sea Level Pressure 30.05 in    
Wind  
Wind Speed 8 mph (North)    
Max Wind Speed 12 mph    
Max Gust Speed 20 mph    
T = Trace of Precipitation, MM = Missing Value Source: NWS Daily Summary

Daily Weather History Graph

Daily Weather History Graph

Search for Another Location

Airport:

Trip Planner

Search our weather history database for the weather conditions in past years. The results will help you decide how hot, cold, wet, or windy it might be!

Date:

Astronomy

Sep. 01, 2012 Rise Set
Actual Time 6:00 AM EDT 7:15 PM EDT
Civil Twilight 5:29 AM EDT 7:45 PM EDT
Nautical Twilight 4:52 AM EDT 8:22 PM EDT
Astronomical Twilight 4:13 AM EDT 9:01 PM EDT
Moon 7:22 PM EDT (9/1) 7:10 AM EDT (9/1)
Length of Visible Light 14h 15m
Length of Day
13h 14m
Full, 99% of the Moon is Illuminated
Sep 1
Full
Sep 8
Last Quarter
Sep 15
New
Sep 22
First Quarter
Sep 29
Full

Hourly Weather History & Observations

Time (EDT) Temp. Dew Point Humidity Pressure Visibility Wind Dir Wind Speed Gust Speed Precip Events Conditions
12:56 AM 62.1 °F 53.1 °F 72% 29.87 in - NNW 11.5 mph 19.6 mph N/A   Unknown
1:56 AM 60.1 °F 50.0 °F 69% 29.89 in - North 9.2 mph - N/A   Unknown
2:56 AM 57.9 °F 50.0 °F 75% 29.91 in - NNW 5.8 mph - N/A   Unknown
3:56 AM 57.9 °F 48.9 °F 72% 29.93 in - North 6.9 mph - N/A   Unknown
4:56 AM 55.0 °F 48.9 °F 80% 29.97 in - North 5.8 mph - N/A   Unknown
6:56 AM 54.0 °F 46.9 °F 77% 30.03 in - North 9.2 mph - N/A   Unknown
7:56 AM 57.0 °F 48.9 °F 74% 30.05 in - North 5.8 mph - N/A   Unknown
8:56 AM 57.9 °F 46.9 °F 67% 30.06 in - North 5.8 mph - N/A   Unknown
9:56 AM 61.0 °F 46.9 °F 60% 30.08 in - NNW 10.4 mph 17.3 mph N/A   Unknown
10:56 AM 63.0 °F 46.0 °F 54% 30.08 in - North 9.2 mph - N/A   Unknown
11:56 AM 64.0 °F 48.0 °F 56% 30.08 in - North 10.4 mph - N/A   Unknown
12:56 PM 66.0 °F 46.9 °F 50% 30.08 in - Variable 5.8 mph 16.1 mph N/A   Unknown
1:56 PM 66.0 °F 46.9 °F 50% 30.08 in - NW 6.9 mph - N/A   Unknown
2:56 PM 66.9 °F 45.0 °F 45% 30.07 in - NW 10.4 mph - N/A   Unknown
3:56 PM 68.0 °F 45.0 °F 43% 30.07 in - NNW 10.4 mph - N/A   Unknown
4:56 PM 68.0 °F 45.0 °F 43% 30.06 in - NNW 8.1 mph - N/A   Unknown
5:56 PM 66.0 °F 44.1 °F 45% 30.07 in - North 3.5 mph - N/A   Unknown
6:56 PM 63.0 °F 45.0 °F 52% 30.09 in - North 3.5 mph - N/A   Unknown
7:56 PM 57.0 °F 46.9 °F 69% 30.11 in - NE 4.6 mph - N/A   Unknown
8:56 PM 55.9 °F 45.0 °F 67% 30.12 in - NNE 3.5 mph - N/A   Unknown
9:56 PM 54.0 °F 45.0 °F 72% 30.13 in - NNE 3.5 mph - N/A   Unknown
10:56 PM 55.0 °F 46.0 °F 72% 30.12 in - Calm Calm - N/A   Unknown
11:56 PM 55.9 °F 45.0 °F 67% 30.12 in - East 4.6 mph - N/A   Unknown